Location: Unspecified
(36.9193°S, 174.7252°E)
Time: 23:53:04
(UTC+12:00)

Envisat - Visible Passes

Search period start: 20 September 2021 00:00
Search period end: 30 September 2021 01:00
Orbit: 764 x 766 km, 98.2° (Epoch: 20 September)

Date Brightness Start Highest point End Pass type
(mag) Time Alt. Az. Time Alt. Az. Time Alt. Az.
20 Sep 3.5 04:26:37 10° NNE 04:31:38 61° ESE 04:36:42 10° S visible
21 Sep 5.1 03:50:47 10° NE 03:55:01 27° ESE 03:59:17 10° SSE visible
21 Sep 3.7 05:29:20 10° NNW 05:33:52 32° W 05:38:27 10° SSW visible
22 Sep 6.1 03:16:37 10° E 03:18:37 12° ESE 03:20:37 10° SE visible
22 Sep 2.9 04:51:49 10° N 04:56:55 76° WNW 05:02:05 10° SSW visible
22 Sep 5.9 18:43:09 10° SSW 18:46:47 20° WSW 18:50:23 10° WNW visible
23 Sep 4.0 04:15:18 10° NE 04:20:10 47° ESE 04:25:06 10° S visible
24 Sep 5.4 03:39:49 10° ENE 03:43:37 21° ESE 03:47:27 10° SSE visible
24 Sep 3.4 05:17:30 10° NNW 05:22:18 41° W 05:27:10 10° SSW visible
24 Sep 6.4 19:10:18 10° SW 19:11:47 11° WSW 19:13:14 10° WSW visible
25 Sep 3.0 04:40:19 10° NNE 04:45:25 85° ESE 04:50:36 10° S visible
26 Sep 4.5 05:04:05 10° NE 05:08:44 37° ESE 05:13:26 10° S visible
27 Sep 5.8 04:29:02 10° ENE 04:32:14 17° ESE 04:35:28 10° SSE visible
27 Sep 3.1 06:05:47 10° N 06:10:46 54° W 06:15:49 10° SSW visible
27 Sep 6.1 19:57:44 10° SSW 20:00:25 14° WSW 20:03:07 10° W visible
28 Sep 3.4 05:28:53 10° NNE 05:33:56 66° ESE 05:39:03 10° S visible
29 Sep 5.0 04:52:57 10° NE 04:57:18 29° ESE 05:01:41 10° S visible
29 Sep 3.8 06:31:46 10° NNW 06:36:12 30° W 06:40:41 10° SW visible
